Weather in Fresno

United States     36°44′36″N   119°47′17″W
В апреле 2022 года жителям России запретили посещать сайт meteo.paraplan.net по решению Генеральной прокуратуры. Аудитория сайта уменьшилась в 10 раз. Владельцы сайта не видят смысла в поддержке погодного сервера в таких условиях. Сайт будет закрыт в октябре.
temp.,
°C
wind,
m/s
gust,
m/s
humid.,
%
clouds,
%
prec.,
mm/h
press.,
hPa
HPBL,
m
4 october, tue
tue423:00+24nw24410 0.0 1015211
02:00+23nw12430 0.0 101487
05:00+21wnw22480 0.0 101495
08:00+21w11470 0.0 1015126
11:00+26wnw11340 0.0 1015526
14:00+31nw22240 0.0 1013911
17:00+33nw2318100 0.0 10111180
20:00+29nnw24245 0.0 101298
5 october, wed
wed523:00+26nw13290 0.0 101387
02:00+24nw22330 0.0 101376
05:00+22nw12360 0.0 101457
08:00+22sw11350 0.0 101481
11:00+28wsw11260 0.0 1015462
14:00+32nnw11180 0.0 1013740
17:00+34nnw23140 0.0 1011962
20:00+30nnw22180 0.0 101230
6 october, thu
thu623:00+27nne11210 0.0 101320
02:00+25nnw11240 0.0 101417
05:00+24sw01260 0.0 101412
08:00+23s00270 0.0 101558
11:00+29wsw11180 0.0 1016419
14:00+34nw22140 0.0 1014862
17:00+36nnw33110 0.0 10121461
20:00+31nnw24150 0.0 101379
7 october, fri
fri723:00+28nw23185 0.0 101498
02:00+25nw122213 0.0 101578
05:00+24nnw11224 0.0 101530
08:00+24ssw01230 0.0 101770
11:00+29sw11160 0.0 1016442
14:00+34nw22120 0.0 1013697
17:00+36n24110 0.0 10121202
20:00+32nnw23140 0.0 101253
8 october, sat
sat823:00+28nw12160 0.0 101366
02:00+26nnw11180 0.0 101345
05:00+24ese11190 0.0 101434
08:00+24se12190 0.0 101582
11:00+30ssw11130 0.0 1015410
14:00+34nnw22100 0.0 1012672
17:00+36nnw3480 0.0 10101584
20:00+32nnw26123 0.0 1011124